Вернуться в каталог

STARLINK-3923

АктивенСвязьVLEO
NORAD 52489·PAYLOAD·🇺🇸 United States

Запущен May 6, 2022 с Cape Canaveral Space Force Station

Loading…

Ближайшие Пролёты (ближайшие 24 часа)

TLE

СвежийSource: CelesTrak SupGP

Эпоха: Sep 15, 2026, 02:32 UTC

1 52489C 22049AQ  26258.10604167 -.00009644  00000+0 -29258-3 0  2584
2 52489  53.1583 278.9882 0001325  92.0806 151.8764 15.33560071    19

Отслеживайте STARLINK-3923 в реальном времени с AllMySat

Download on the App Store